• în România
  • Lista ţărilor
  • Pe 7 zile
  • Temperatura apei
  • Hartă satelitară
  • Meteo pe hartă
  • Widget-uri
  • user-avatar
    Intrare

    Meteo pe oră la Kaprun

    Astăzi, 20 Ianuarie, Sâmbătă

    Timp Temperatura Precipitaţii Vânt Presiune Umiditate
    00:00 -15°C° 0 mm 2 m/s 588 mmHg 82%
    01:00 -13°C° 0 mm 2 m/s 588 mmHg 79%
    02:00 -13°C° 0,3 mm 2 m/s 588 mmHg 83%
    03:00 -11°C° 0,3 mm 1 m/s 589 mmHg 86%
    04:00 -10°C° 0,3 mm 1 m/s 589 mmHg 90%
    05:00 -11°C° 0,2 mm 1 m/s 589 mmHg 90%
    06:00 -11°C° 0,2 mm 1 m/s 588 mmHg 90%
    07:00 -12°C° 0,2 mm 1 m/s 588 mmHg 90%
    08:00 -11°C° 0 mm 1 m/s 588 mmHg 88%
    09:00 -10°C° 0 mm 1 m/s 589 mmHg 86%
    10:00 -9°C° 0 mm 1 m/s 589 mmHg 84%
    11:00 -8°C° 0 mm 1 m/s 589 mmHg 78%
    12:00 -7°C° 0 mm 1 m/s 589 mmHg 73%
    13:00 -6°C° 0 mm 1 m/s 589 mmHg 67%
    14:00 -6°C° 0 mm 1 m/s 588 mmHg 73%
    15:00 -8°C° 0 mm 2 m/s 587 mmHg 78%
    16:00 -9°C° 0 mm 2 m/s 586 mmHg 84%
    17:00 -9°C° 0,1 mm 2 m/s 586 mmHg 85%
    18:00 -10°C° 0,1 mm 2 m/s 585 mmHg 87%
    19:00 -12°C° 0,1 mm 3 m/s 584 mmHg 88%
    20:00 -12°C° 0,6 mm 3 m/s 584 mmHg 90%
    21:00 -12°C° 0,6 mm 3 m/s 583 mmHg 91%
    22:00 -12°C° 0,6 mm 3 m/s 583 mmHg 93%
    23:00 -10°C° 1 mm 2 m/s 583 mmHg 94%

    Mâine, 21 Ianuarie, Duminică

    Timp Temperatura Precipitaţii Vânt Presiune Umiditate
    00:00 -10°C° 1 mm 2 m/s 583 mmHg 94%
    01:00 -10°C° 1 mm 2 m/s 583 mmHg 95%
    02:00 -10°C° 0,9 mm 2 m/s 584 mmHg 95%
    03:00 -9°C° 0,9 mm 2 m/s 584 mmHg 95%
    04:00 -9°C° 0,9 mm 2 m/s 584 mmHg 96%
    05:00 -9°C° 1 mm 2 m/s 584 mmHg 96%
    06:00 -8°C° 1 mm 2 m/s 585 mmHg 96%
    07:00 -8°C° 1 mm 2 m/s 585 mmHg 96%
    08:00 -8°C° 1 mm 2 m/s 585 mmHg 96%
    09:00 -9°C° 1 mm 3 m/s 586 mmHg 96%
    10:00 -9°C° 1 mm 3 m/s 587 mmHg 96%
    11:00 -9°C° 0,5 mm 3 m/s 587 mmHg 93%
    12:00 -10°C° 0,5 mm 3 m/s 587 mmHg 90%
    13:00 -11°C° 0,5 mm 4 m/s 588 mmHg 88%
    14:00 -10°C° 0,2 mm 3 m/s 588 mmHg 88%
    15:00 -12°C° 0,2 mm 3 m/s 589 mmHg 89%
    16:00 -12°C° 0,2 mm 3 m/s 589 mmHg 89%
    17:00 -13°C° 0,2 mm 3 m/s 589 mmHg 90%
    18:00 -13°C° 0,2 mm 2 m/s 589 mmHg 91%
    19:00 -13°C° 0,2 mm 2 m/s 590 mmHg 92%
    20:00 -13°C° 0,2 mm 2 m/s 590 mmHg 91%
    21:00 -13°C° 0,2 mm 2 m/s 590 mmHg 91%
    22:00 -13°C° 0,2 mm 2 m/s 590 mmHg 90%
    23:00 -13°C° 0,4 mm 2 m/s 590 mmHg 91%

    Poimâine, 22 Ianuarie, Luni

    Timp Temperatura Precipitaţii Vânt Presiune Umiditate
    00:00 -12°C° 0,4 mm 2 m/s 590 mmHg 92%
    01:00 -10°C° 0,4 mm 1 m/s 590 mmHg 92%
    02:00 -9°C° 1,6 mm 1 m/s 590 mmHg 94%
    03:00 -8°C° 1,6 mm 1 m/s 590 mmHg 95%
    04:00 -8°C° 1,6 mm 1 m/s 590 mmHg 96%
    05:00 -7°C° 2,9 mm 1 m/s 590 mmHg 96%
    06:00 -7°C° 2,9 mm 1 m/s 590 mmHg 96%
    07:00 -6°C° 2,9 mm 1 m/s 590 mmHg 97%
    08:00 -6°C° 2,8 mm 1 m/s 590 mmHg 97%
    09:00 -4°C° 2,8 mm 1 m/s 591 mmHg 97%
    10:00 -4°C° 2,8 mm 1 m/s 591 mmHg 97%
    11:00 -5°C° 1,4 mm 2 m/s 592 mmHg 97%
    12:00 -4°C° 1,4 mm 2 m/s 592 mmHg 97%
    13:00 -3°C° 1,4 mm 2 m/s 592 mmHg 97%
    14:00 -3°C° 0,5 mm 2 m/s 593 mmHg 97%
    15:00 -3°C° 0,5 mm 2 m/s 593 mmHg 96%
    16:00 -3°C° 0,5 mm 2 m/s 593 mmHg 96%
    17:00 -3°C° 0,1 mm 2 m/s 593 mmHg 96%
    18:00 -4°C° 0,1 mm 2 m/s 593 mmHg 95%
    19:00 -5°C° 0,1 mm 2 m/s 593 mmHg 95%
    20:00 -5°C° 0,1 mm 2 m/s 593 mmHg 94%
    21:00 -5°C° 0,1 mm 2 m/s 593 mmHg 93%
    22:00 -5°C° 0,1 mm 2 m/s 593 mmHg 92%
    23:00 -5°C° 0,3 mm 2 m/s 593 mmHg 92%

    23 Ianuarie, Marţi

    Timp Temperatura Precipitaţii Vânt Presiune Umiditate
    00:00 -5°C° 0,3 mm 2 m/s 594 mmHg 93%
    01:00 -3°C° 0,3 mm 1 m/s 594 mmHg 93%
    02:00 -3°C° 0,6 mm 1 m/s 594 mmHg 93%
    03:00 -3°C° 0,6 mm 1 m/s 594 mmHg 94%
    04:00 -3°C° 0,6 mm 1 m/s 594 mmHg 94%
    05:00 -3°C° 0,9 mm 1 m/s 595 mmHg 94%
    06:00 -5°C° 0,9 mm 2 m/s 595 mmHg 94%
    07:00 -4°C° 0,9 mm 2 m/s 595 mmHg 95%
    08:00 -4°C° 0,7 mm 2 m/s 596 mmHg 95%
    09:00 -4°C° 0,7 mm 2 m/s 597 mmHg 96%
    10:00 -3°C° 0,7 mm 2 m/s 597 mmHg 97%
    11:00 -3°C° 0,1 mm 2 m/s 598 mmHg 97%
    12:00 -3°C° 0,1 mm 2 m/s 598 mmHg 98%
    13:00 -2°C° 0,1 mm 2 m/s 599 mmHg 99%
    14:00 -3°C° 0 mm 2 m/s 599 mmHg 98%
    15:00 -3°C° 0 mm 2 m/s 599 mmHg 98%
    16:00 -3°C° 0 mm 2 m/s 599 mmHg 97%
    17:00 -4°C° 0 mm 2 m/s 599 mmHg 96%
    18:00 -5°C° 0 mm 2 m/s 599 mmHg 95%
    19:00 -6°C° 0 mm 2 m/s 599 mmHg 95%
    20:00 -7°C° 0 mm 2 m/s 599 mmHg 92%
    21:00 -7°C° 0 mm 2 m/s 599 mmHg 90%
    22:00 -8°C° 0 mm 2 m/s 599 mmHg 87%
    23:00 -8°C° 0 mm 2 m/s 599 mmHg 83%

    24 Ianuarie, Miercuri

    Timp Temperatura Precipitaţii Vânt Presiune Umiditate
    00:00 -7°C° 0 mm 1 m/s 599 mmHg 80%
    01:00 -7°C° 0 mm 1 m/s 600 mmHg 76%
    02:00 -7°C° 0 mm 1 m/s 600 mmHg 73%
    03:00 -7°C° 0 mm 1 m/s 599 mmHg 70%
    04:00 -7°C° 0 mm 1 m/s 599 mmHg 67%
    05:00 -7°C° 0 mm 1 m/s 600 mmHg 65%
    06:00 -7°C° 0 mm 1 m/s 600 mmHg 63%
    07:00 -7°C° 0 mm 1 m/s 600 mmHg 61%
    08:00 -6°C° 0 mm 1 m/s 601 mmHg 64%
    09:00 -3°C° 0 mm 1 m/s 601 mmHg 68%
    10:00 -1°C° 0 mm 1 m/s 602 mmHg 71%
    11:00 -1°C° 0 mm 1 m/s 602 mmHg 79%
    12:00 0°C° 0 mm 1 m/s 602 mmHg 87%
    13:00 +1°C° 0 mm 1 m/s 602 mmHg 95%
    14:00 0°C° 0 mm 1 m/s 602 mmHg 90%
    15:00 0°C° 0 mm 1 m/s 602 mmHg 86%
    16:00 -1°C° 0 mm 1 m/s 601 mmHg 81%
    17:00 -2°C° 0 mm 1 m/s 601 mmHg 77%
    18:00 -3°C° 0 mm 1 m/s 600 mmHg 72%
    19:00 -7°C° 0 mm 2 m/s 600 mmHg 67%
    20:00 -7°C° 0 mm 2 m/s 600 mmHg 65%
    21:00 -7°C° 0 mm 2 m/s 600 mmHg 64%
    22:00 -8°C° 0 mm 2 m/s 600 mmHg 63%
    23:00 -8°C° 0 mm 2 m/s 599 mmHg 63%

    25 Ianuarie, Joi

    Timp Temperatura Precipitaţii Vânt Presiune Umiditate
    00:00 -8°C° 0 mm 2 m/s 599 mmHg 62%
    01:00 -8°C° 0 mm 2 m/s 599 mmHg 62%
    02:00 -8°C° 0 mm 2 m/s 598 mmHg 62%
    03:00 -8°C° 0 mm 2 m/s 598 mmHg 62%
    04:00 -8°C° 0 mm 2 m/s 598 mmHg 62%
    05:00 -8°C° 0 mm 2 m/s 598 mmHg 61%
    06:00 -8°C° 0 mm 2 m/s 597 mmHg 61%
    07:00 -8°C° 0 mm 2 m/s 597 mmHg 61%
    08:00 -6°C° 0 mm 1 m/s 598 mmHg 64%
    09:00 -3°C° 0 mm 1 m/s 598 mmHg 68%
    10:00 -1°C° 0 mm 1 m/s 599 mmHg 72%
    11:00 -3°C° 0 mm 2 m/s 599 mmHg 79%
    12:00 -2°C° 0 mm 2 m/s 599 mmHg 85%
    13:00 -2°C° 0 mm 2 m/s 598 mmHg 92%
    14:00 -2°C° 0 mm 2 m/s 598 mmHg 90%
    15:00 -2°C° 0 mm 2 m/s 597 mmHg 88%
    16:00 -1°C° 0 mm 1 m/s 597 mmHg 86%
    17:00 -2°C° 0 mm 1 m/s 596 mmHg 83%
    18:00 -5°C° 0 mm 2 m/s 596 mmHg 80%
    19:00 -6°C° 0 mm 2 m/s 595 mmHg 77%
    20:00 -7°C° 0 mm 2 m/s 595 mmHg 76%
    21:00 -7°C° 0 mm 2 m/s 595 mmHg 75%
    22:00 -7°C° 0 mm 2 m/s 595 mmHg 74%
    23:00 -8°C° 0 mm 2 m/s 594 mmHg 76%
    Arată mai mult